LTA880 KMCO-

Flight info

Callsign LTA880
Flight time N/A
Altitude VFR
Route
Aircraft DA62/L-VGD/C

Departure

Time 2026-04-21 23:41
Airport Orlando International Airport (KMCO)

Arrival

Time N/A
Airport -
Time Latitude Longitude Altitude Speed Heading
2026-04-21 23:37 28.42198 -81.32962 97 ft 13 kts 140°
2026-04-21 23:37 28.42114 -81.32914 97 ft 14 kts 177°
2026-04-21 23:37 28.42003 -81.32912 98 ft 17 kts 179°
2026-04-21 23:38 28.41905 -81.32910 101 ft 12 kts 178°
2026-04-21 23:38 28.41806 -81.32910 104 ft 18 kts 181°
2026-04-21 23:38 28.41685 -81.32908 104 ft 16 kts 179°
2026-04-21 23:38 28.41576 -81.32906 102 ft 15 kts 172°
2026-04-21 23:39 28.41549 -81.32893 102 ft 0 kts 130°
2026-04-21 23:39 28.41547 -81.32890 102 ft 4 kts 129°
2026-04-21 23:39 28.41538 -81.32829 103 ft 11 kts 89°
2026-04-21 23:39 28.41538 -81.32786 103 ft 0 kts 90°
2026-04-21 23:40 28.41538 -81.32780 103 ft 5 kts 90°
2026-04-21 23:40 28.41544 -81.32681 103 ft 15 kts 63°
2026-04-21 23:40 28.41778 -81.32665 100 ft 65 kts 355°
2026-04-21 23:40 28.42381 -81.32680 136 ft 105 kts
2026-04-21 23:41 28.43153 -81.32694 389 ft 109 kts
2026-04-21 23:41 28.43635 -81.32702 709 ft 99 kts 12°
2026-04-21 23:41 28.44308 -81.32614 1070 ft 101 kts 18°
2026-04-21 23:41 28.45061 -81.32663 1036 ft 118 kts 334°
2026-04-21 23:42 28.45418 -81.33847 1065 ft 127 kts 274°
2026-04-21 23:42 28.45221 -81.34440 1092 ft 119 kts 211°
2026-04-21 23:42 28.44445 -81.34570 1069 ft 117 kts 166°
2026-04-21 23:42 28.43632 -81.34518 1053 ft 116 kts 168°
2026-04-21 23:43 28.42843 -81.34479 1031 ft 110 kts 167°
2026-04-21 23:43 28.42097 -81.34482 1017 ft 102 kts 169°
2026-04-21 23:43 28.41408 -81.34450 860 ft 97 kts 163°
2026-04-21 23:43 28.40724 -81.34283 729 ft 102 kts 134°
2026-04-21 23:44 28.40413 -81.33591 512 ft 90 kts 93°
2026-04-21 23:44 28.40466 -81.32970 405 ft 74 kts 68°
2026-04-21 23:44 28.40950 -81.32686 260 ft 94 kts 15°
2026-04-21 23:44 28.41577 -81.32665 126 ft 80 kts 10°
2026-04-21 23:45 28.42048 -81.32670 101 ft 52 kts
2026-04-21 23:45 28.43035 -81.32679 248 ft 96 kts
2026-04-21 23:45 28.43684 -81.32682 680 ft 94 kts
2026-04-21 23:46 28.44357 -81.32670 1040 ft 101 kts
2026-04-21 23:46 28.45092 -81.32684 1093 ft 106 kts 10°
2026-04-21 23:46 28.45574 -81.33275 1079 ft 120 kts 272°
2026-04-21 23:46 28.45376 -81.34169 1069 ft 113 kts 206°
2026-04-21 23:47 28.44675 -81.34314 1098 ft 105 kts 174°
2026-04-21 23:47 28.43904 -81.34415 1079 ft 117 kts 179°
2026-04-21 23:47 28.43097 -81.34531 1076 ft 119 kts 177°
2026-04-21 23:47 28.42300 -81.34673 1086 ft 112 kts 176°
2026-04-21 23:48 28.41544 -81.34751 1055 ft 104 kts 174°
2026-04-21 23:48 28.40860 -81.34783 918 ft 96 kts 169°
2026-04-21 23:48 28.40249 -81.34600 738 ft 89 kts 116°
2026-04-21 23:48 28.40240 -81.33947 581 ft 85 kts 81°
2026-04-21 23:49 28.40347 -81.33333 518 ft 75 kts 79°
2026-04-21 23:49 28.40551 -81.32806 451 ft 78 kts 47°
2026-04-21 23:49 28.41129 -81.32679 225 ft 87 kts 10°
2026-04-21 23:49 28.41690 -81.32668 114 ft 73 kts 11°
2026-04-21 23:50 28.42091 -81.32666 100 ft 46 kts 358°
2026-04-21 23:50 28.42530 -81.32681 111 ft 86 kts
2026-04-21 23:50 28.43170 -81.32725 422 ft 92 kts
2026-04-21 23:50 28.43764 -81.32780 915 ft 82 kts 14°
2026-04-21 23:51 28.44345 -81.32688 1226 ft 91 kts 13°
2026-04-21 23:51 28.45126 -81.32703 1023 ft 114 kts
2026-04-21 23:51 28.45892 -81.32791 1031 ft 108 kts
2026-04-21 23:51 28.46663 -81.32838 1133 ft 118 kts
2026-04-21 23:52 28.47534 -81.32895 1167 ft 128 kts
2026-04-21 23:52 28.48392 -81.32998 1085 ft 119 kts
2026-04-21 23:52 28.49061 -81.33558 1005 ft 132 kts 294°
2026-04-21 23:52 28.49079 -81.34526 1037 ft 119 kts 240°
2026-04-21 23:53 28.48442 -81.35074 1043 ft 118 kts 186°
2026-04-21 23:53 28.47658 -81.35199 1084 ft 110 kts 170°
2026-04-21 23:53 28.46891 -81.35171 1088 ft 111 kts 171°
2026-04-21 23:53 28.46102 -81.35238 1035 ft 114 kts 173°
2026-04-21 23:54 28.45330 -81.35302 1036 ft 110 kts 175°
2026-04-21 23:54 28.44554 -81.35348 1031 ft 114 kts 173°
2026-04-21 23:54 28.43798 -81.35383 1098 ft 109 kts 172°
2026-04-21 23:54 28.43025 -81.35460 1077 ft 111 kts 176°
2026-04-21 23:55 28.42280 -81.35597 1074 ft 105 kts 179°
2026-04-21 23:55 28.41562 -81.35719 1068 ft 105 kts 176°
2026-04-21 23:55 28.40834 -81.35787 1120 ft 106 kts 175°
2026-04-21 23:55 28.40100 -81.35835 1152 ft 106 kts 174°
2026-04-21 23:56 28.39357 -81.35868 1122 ft 107 kts 175°
2026-04-21 23:56 28.38613 -81.35938 1114 ft 106 kts 171°
2026-04-21 23:56 28.38086 -81.35555 1103 ft 92 kts 98°
2026-04-21 23:56 28.38032 -81.34867 1120 ft 84 kts 91°
2026-04-21 23:57 28.38092 -81.34202 1062 ft 86 kts 77°
2026-04-21 23:57 28.38313 -81.33513 953 ft 98 kts 73°
2026-04-21 23:57 28.38707 -81.32858 803 ft 93 kts 40°
2026-04-21 23:57 28.39269 -81.32727 608 ft 80 kts
2026-04-21 23:58 28.39852 -81.32691 471 ft 89 kts 17°
2026-04-21 23:58 28.40491 -81.32665 316 ft 97 kts 10°
2026-04-21 23:58 28.41142 -81.32665 230 ft 87 kts
2026-04-21 23:58 28.41734 -81.32665 107 ft 77 kts
2026-04-21 23:59 28.42140 -81.32666 98 ft 45 kts 359°
2026-04-21 23:59 28.42534 -81.32678 103 ft 81 kts
2026-04-21 23:59 28.43158 -81.32683 398 ft 90 kts 11°
2026-04-21 23:59 28.43784 -81.32669 806 ft 88 kts 13°
2026-04-22 00:00 28.44487 -81.32671 1111 ft 104 kts 10°
2026-04-22 00:00 28.44811 -81.33435 1142 ft 154 kts 266°
2026-04-22 00:00 28.44574 -81.34459 1059 ft 122 kts 187°
2026-04-22 00:00 28.43823 -81.34512 1034 ft 103 kts 177°
2026-04-22 00:01 28.43109 -81.34615 1049 ft 107 kts 179°
2026-04-22 00:01 28.42372 -81.34754 1123 ft 118 kts 178°
2026-04-22 00:01 28.41508 -81.34883 1191 ft 124 kts 173°